COSMOS 1275 DEB, 13480

Orbit data source: Space-Track

COSMOS 1275 DEB, 13480 is space debris in LEO originally from a launch on Thu, 04 Jun 1981 UTC launched from the Plesetsk Missile And Space Complex (PKMTR). Debris objects in space refer to the collection of defunct objects orbiting the Earth. Examples of debris include non-operational satellites, rocket bodies, and fragments generated from explosions, collisions, or faulty payload assembly.

Loading next visibility...
Identifier
13480, 1981-053GA
Orbit
LEO
Country
Flag of CISCIS
Related business
Manufacturer
Unknown
Mission
Spacecraft
Bus & Motor
Unknown
Mass
Unknown
Launch date (UTC)
1981-06-04 (45 years ago)
Launch vehicle
Unknown
Launch site
Plesetsk Missile And Space Complex (PKMTR)
Object type
Payload
Rocket body
Debris
Shape & HBR
Unknown shape, 0.1 m
Radar Cross Section
Medium (>0.1 m² and <1 m²)

Expand to show TLE details & history
Last TLE update: 2 days ago

TLE from 2 days ago
0 COSMOS 1275 DEB
1 13480U 81053GA  26171.43842792  .00001226  00000-0  81442-3 0  9992
2 13480  82.9621 164.6059 0067178  28.9563 122.6146 13.99491650222745
Epoch: 2026-06-20T10:31Z
TLE epoch observation values (Epoch: 2026-06-20T10:31:20.172Z)
Latitude
27.59621°
Longitude
-85.56175°
Altitude
925.534 km
Speed
7.378 km/s
True Right ascension
22h 43m 42s
True Declination
27° 27' 31"
Sunlit
Object was in daylight at epoch
Visualization orbit readout
Latitude
Unknown
Longitude
Unknown
Altitude
Unknown
Speed
Unknown
Apparent Right ascension
Unknown
Apparent Declination
Unknown
Sunlit
N/A
Visualization observer readout
Local Sidereal Time
23:20:05
Azimuth
Unknown
Elevation
Unknown
Doppler factor
Unknown
Orbital elements
Apogee altitude
941.514 km
Perigee altitude
843.826 km
Semi-major axis
7,270.807 km
Eccentricity
0.00672
Inclination
82.9621°
RAAN
164.6059°
Arg. of periapsis
28.9563°
True anomaly
123.26008°
Mean anomaly
122.6146°
Eccentric anomaly
122.93763°
Mean motion
3.50082 °/min
Orbital period
102.83 mins
BSTAR
0.00081442
Loading maneuver chart data...
Computing Atmospheric mass density...

Documentation

Showing up to 5 results
|